ISS (NAUKA) (49044 NORAD) Tracking and Keplerian Element Data

This shows tracking and keplerian element data for the satellite.

Feedback or suggestion? Click here.




ElementValue
Catalog49044
NameISS (NAUKA)
Epoch Orbit18267
Epoch Day286.82176872
Epoch Year2024
RAAN92.7424
Inclination51.638
Eccentricity0.0009179
Argument of Perigee63.7262
Mean Anonmoly296.4669
Mean Motion15.49763544
Decay Rate0.00028824
L11 49044U 21066A 24286.82176872 .00028824 00000+0 51475-3 0 9997
L22 49044 51.6380 92.7424 0009179 63.7262 296.4669 15.49763544182670



Live tracking and technical data element details for ISS (NAUKA) (NORAD 49044). ISS (NAUKA) can be tracked NOW for your location showing map with azimuth and elevation plus other details from your city location.







IsCatalogInMostPopularTable: catalog: 49044, numindb: 451
Update: records affected: 1



GetName: 49044 ISS (NAUKA)

Hit Count: updated at: Fri, 06 Dec 2024 10:39:50 GMT